Time,TemperatureF,DewpointF,PressureIn,WindDirection,WindDirectionDegrees,WindSpeedMPH,WindSpeedGustMPH,Humidity,HourlyPrecipIn,Conditions,Clouds,dailyrainin,SoftwareType,DateUTC
2013-02-10 00:00:00,35.1,28.6,30.04,NNW,334,2.0,2.0,77,0.00,,,-99.99,Weather View 32 v60,2013-02-10 08:00:00,
2013-02-10 00:05:00,35.3,28.8,30.04,NNW,341,1.0,3.0,77,0.00,,,-99.99,Weather View 32 v60,2013-02-10 08:05:00,
2013-02-10 00:10:00,35.3,28.8,30.05,NE,48,2.0,3.0,77,0.00,,,-99.99,Weather View 32 v60,2013-02-10 08:10:00,
2013-02-10 00:15:00,35.2,28.7,30.04,ENE,63,2.0,3.0,77,0.00,,,-99.99,Weather View 32 v60,2013-02-10 08:15:00,
2013-02-10 00:20:00,35.1,28.9,30.04,North,3,2.0,3.0,78,0.00,,,-99.99,Weather View 32 v60,2013-02-10 08:20:00,
2013-02-10 00:25:00,34.9,28.7,30.04,North,3,1.0,3.0,78,0.00,,,-99.99,Weather View 32 v60,2013-02-10 08:25:00,
2013-02-10 00:30:00,34.8,28.6,30.04,NNE,13,2.0,3.0,78,0.00,,,-99.99,Weather View 32 v60,2013-02-10 08:30:00,
2013-02-10 00:35:00,34.6,28.8,30.04,NNE,14,1.0,3.0,79,0.00,,,-99.99,Weather View 32 v60,2013-02-10 08:35:00,
2013-02-10 00:40:00,34.4,28.6,30.04,North,359,0.0,3.0,79,0.00,,,-99.99,Weather View 32 v60,2013-02-10 08:40:00,
2013-02-10 00:45:00,34.4,28.9,30.04,NE,39,0.0,3.0,80,0.00,,,-99.99,Weather View 32 v60,2013-02-10 08:45:00,
2013-02-10 00:50:00,34.3,28.8,30.04,NE,39,0.0,3.0,80,0.00,,,-99.99,Weather View 32 v60,2013-02-10 08:50:00,
2013-02-10 01:05:00,34.4,28.9,30.04,ESE,110,0.0,2.0,80,0.00,,,-99.99,Weather View 32 v60,2013-02-10 09:05:00,
2013-02-10 01:15:00,34.3,28.8,30.05,ESE,108,0.0,2.0,80,0.00,,,-99.99,Weather View 32 v60,2013-02-10 09:15:00,
2013-02-10 01:20:00,34.2,28.7,30.05,ESE,107,0.0,2.0,80,0.00,,,-99.99,Weather View 32 v60,2013-02-10 09:20:00,
2013-02-10 01:45:00,34.2,29.0,30.05,NNE,24,2.0,2.0,81,0.00,,,-99.99,Weather View 32 v60,2013-02-10 09:45:00,
2013-02-10 01:48:00,34.4,28.9,30.04,NE,39,0.0,3.0,80,0.00,,,-99.99,Weather View 32 v60,2013-02-10 09:48:00,
2013-02-10 01:50:00,34.1,29.2,30.05,NNW,327,2.0,3.0,82,0.00,,,-99.99,Weather View 32 v60,2013-02-10 09:50:00,
2013-02-10 01:55:00,34.2,29.3,30.04,NW,321,1.0,3.0,82,0.00,,,-99.99,Weather View 32 v60,2013-02-10 09:55:00,
2013-02-10 01:58:00,34.4,28.9,30.04,ESE,114,2.0,3.0,80,0.00,,,-99.99,Weather View 32 v60,2013-02-10 09:58:00,
2013-02-10 02:00:00,34.1,29.2,30.04,NNW,344,1.0,3.0,82,0.00,,,-99.99,Weather View 32 v60,2013-02-10 10:00:00,
2013-02-10 02:03:00,34.5,29.0,30.04,ESE,111,1.0,3.0,80,0.00,,,-99.99,Weather View 32 v60,2013-02-10 10:03:00,
2013-02-10 02:05:00,34.0,29.4,30.04,NNW,328,0.0,3.0,83,0.00,,,-99.99,Weather View 32 v60,2013-02-10 10:05:00,
2013-02-10 02:13:00,34.5,29.0,30.05,ESE,108,0.0,2.0,80,0.00,,,-99.99,Weather View 32 v60,2013-02-10 10:13:00,
2013-02-10 02:20:00,33.8,29.2,30.04,ESE,104,2.0,3.0,83,0.00,,,-99.99,Weather View 32 v60,2013-02-10 10:20:00,
2013-02-10 02:25:00,33.6,29.0,30.04,East,101,2.0,3.0,83,0.00,,,-99.99,Weather View 32 v60,2013-02-10 10:25:00,
2013-02-10 02:28:00,34.3,28.8,30.05,ENE,66,1.0,2.0,80,0.00,,,-99.99,Weather View 32 v60,2013-02-10 10:28:00,
2013-02-10 02:30:00,33.3,28.7,30.04,ESE,112,2.0,3.0,83,0.00,,,-99.99,Weather View 32 v60,2013-02-10 10:30:00,
2013-02-10 02:33:00,34.2,29.0,30.05,ENE,65,1.0,2.0,81,0.00,,,-99.99,Weather View 32 v60,2013-02-10 10:33:00,
2013-02-10 02:38:00,34.1,28.9,30.05,ENE,65,1.0,2.0,81,0.00,,,-99.99,Weather View 32 v60,2013-02-10 10:38:00,
2013-02-10 02:40:00,33.0,28.4,30.03,ESE,110,2.0,3.0,83,0.00,,,-99.99,Weather View 32 v60,2013-02-10 10:40:00,
2013-02-10 02:43:00,34.2,29.0,30.05,NNW,342,1.0,2.0,81,0.00,,,-99.99,Weather View 32 v60,2013-02-10 10:43:00,
2013-02-10 02:45:00,33.0,28.4,30.03,ESE,116,2.0,3.0,83,0.00,,,-99.99,Weather View 32 v60,2013-02-10 10:45:00,
2013-02-10 02:50:00,32.9,28.3,30.03,WSW,243,2.0,3.0,83,0.00,,,-99.99,Weather View 32 v60,2013-02-10 10:50:00,
2013-02-10 02:55:00,32.7,28.1,30.03,SW,217,0.0,3.0,83,0.00,,,-99.99,Weather View 32 v60,2013-02-10 10:55:00,
2013-02-10 03:00:00,32.5,28.2,30.03,WSW,247,1.0,3.0,84,0.00,,,-99.99,Weather View 32 v60,2013-02-10 11:00:00,
2013-02-10 03:05:00,32.4,28.1,30.04,West,266,0.0,3.0,84,0.00,,,-99.99,Weather View 32 v60,2013-02-10 11:05:00,
2013-02-10 03:10:00,32.5,28.2,30.04,SW,216,0.0,3.0,84,0.00,,,-99.99,Weather View 32 v60,2013-02-10 11:10:00,
2013-02-10 03:13:00,33.9,29.3,30.04,NNW,329,0.0,3.0,83,0.00,,,-99.99,Weather View 32 v60,2013-02-10 11:13:00,
2013-02-10 03:15:00,32.4,28.1,30.04,SW,216,0.0,3.0,84,0.00,,,-99.99,Weather View 32 v60,2013-02-10 11:15:00,
2013-02-10 03:18:00,34.0,29.4,30.04,ESE,104,2.0,3.0,83,0.00,,,-99.99,Weather View 32 v60,2013-02-10 11:18:00,
2013-02-10 03:20:00,32.5,28.5,30.04,SW,215,0.0,3.0,85,0.00,,,-99.99,Weather View 32 v60,2013-02-10 11:20:00,
2013-02-10 03:25:00,32.4,28.1,30.04,ENE,76,2.0,3.0,84,0.00,,,-99.99,Weather View 32 v60,2013-02-10 11:25:00,
2013-02-10 03:30:00,32.3,28.0,30.04,ESE,122,2.0,3.0,84,0.00,,,-99.99,Weather View 32 v60,2013-02-10 11:30:00,
2013-02-10 03:35:00,32.1,27.8,30.04,East,84,2.0,3.0,84,0.00,,,-99.99,Weather View 32 v60,2013-02-10 11:35:00,
2013-02-10 03:38:00,33.2,28.6,30.03,ESE,121,2.0,3.0,83,0.00,,,-99.99,Weather View 32 v60,2013-02-10 11:38:00,
2013-02-10 03:40:00,31.9,27.6,30.04,East,86,1.0,3.0,84,0.00,,,-99.99,Weather View 32 v60,2013-02-10 11:40:00,
2013-02-10 03:45:00,31.8,27.8,30.04,East,87,2.0,3.0,85,0.00,,,-99.99,Weather View 32 v60,2013-02-10 11:45:00,
2013-02-10 03:50:00,31.9,27.9,30.04,East,81,2.0,3.0,85,0.00,,,-99.99,Weather View 32 v60,2013-02-10 11:50:00,
2013-02-10 03:55:00,31.7,27.7,30.04,ENE,65,0.0,3.0,85,0.00,,,-99.99,Weather View 32 v60,2013-02-10 11:55:00,
2013-02-10 04:10:00,31.7,28.0,30.04,SE,135,1.0,3.0,86,0.00,,,-99.99,Weather View 32 v60,2013-02-10 12:10:00,
2013-02-10 04:25:00,31.2,27.5,30.04,NE,40,2.0,3.0,86,0.00,,,-99.99,Weather View 32 v60,2013-02-10 12:25:00,
2013-02-10 04:30:00,31.1,27.4,30.04,NE,37,1.0,3.0,86,0.00,,,-99.99,Weather View 32 v60,2013-02-10 12:30:00,
2013-02-10 04:35:00,30.9,27.2,30.05,NE,38,1.0,2.0,86,0.00,,,-99.99,Weather View 32 v60,2013-02-10 12:35:00,
2013-02-10 04:40:00,30.8,27.1,30.05,NNE,31,1.0,2.0,86,0.00,,,-99.99,Weather View 32 v60,2013-02-10 12:40:00,
2013-02-10 04:50:00,30.7,27.0,30.05,NE,52,0.0,2.0,86,0.00,,,-99.99,Weather View 32 v60,2013-02-10 12:50:00,
2013-02-10 04:55:00,30.8,27.4,30.05,NE,53,0.0,2.0,87,0.00,,,-99.99,Weather View 32 v60,2013-02-10 12:55:00,
2013-02-10 05:03:00,31.6,27.6,30.05,ENE,65,0.0,3.0,85,0.00,,,-99.99,Weather View 32 v60,2013-02-10 13:03:00,
2013-02-10 05:08:00,31.5,27.5,30.05,ENE,65,0.0,3.0,85,0.00,,,-99.99,Weather View 32 v60,2013-02-10 13:08:00,
2013-02-10 05:10:00,30.8,27.4,30.05,NE,53,0.0,2.0,87,0.00,,,-99.99,Weather View 32 v60,2013-02-10 13:10:00,
2013-02-10 05:15:00,30.7,27.3,30.05,NE,35,2.0,2.0,87,0.00,,,-99.99,Weather View 32 v60,2013-02-10 13:15:00,
2013-02-10 05:18:00,31.5,27.5,30.04,SE,135,0.0,3.0,85,0.00,,,-99.99,Weather View 32 v60,2013-02-10 13:18:00,
2013-02-10 05:20:00,30.8,27.7,30.05,NNE,12,0.0,2.0,88,0.00,,,-99.99,Weather View 32 v60,2013-02-10 13:20:00,
2013-02-10 05:23:00,31.4,27.7,30.04,SE,135,0.0,3.0,86,0.00,,,-99.99,Weather View 32 v60,2013-02-10 13:23:00,
2013-02-10 05:30:00,30.8,27.4,30.06,NNE,17,1.0,2.0,87,0.00,,,-99.99,Weather View 32 v60,2013-02-10 13:30:00,
2013-02-10 05:35:00,30.9,27.8,30.05,North,11,0.0,2.0,88,0.00,,,-99.99,Weather View 32 v60,2013-02-10 13:35:00,
2013-02-10 05:40:00,30.9,27.8,30.06,NNW,347,0.0,2.0,88,0.00,,,-99.99,Weather View 32 v60,2013-02-10 13:40:00,
2013-02-10 05:48:00,30.8,27.1,30.05,NNE,33,2.0,2.0,86,0.00,,,-99.99,Weather View 32 v60,2013-02-10 13:48:00,
2013-02-10 05:54:00,30.7,27.0,30.05,NE,52,0.0,2.0,86,0.00,,,-99.99,Weather View 32 v60,2013-02-10 13:54:00,
2013-02-10 06:03:00,30.9,27.5,30.06,NE,53,0.0,2.0,87,0.00,,,-99.99,Weather View 32 v60,2013-02-10 14:03:00,
2013-02-10 06:08:00,30.9,27.5,30.05,NE,53,0.0,2.0,87,0.00,,,-99.99,Weather View 32 v60,2013-02-10 14:08:00,
2013-02-10 06:15:00,30.6,27.5,30.07,ENE,61,0.0,2.0,88,0.00,,,-99.99,Weather View 32 v60,2013-02-10 14:15:00,
2013-02-10 06:25:00,31.0,28.1,30.07,NNW,330,0.0,2.0,89,0.00,,,-99.99,Weather View 32 v60,2013-02-10 14:25:00,
2013-02-10 06:28:00,30.9,27.5,30.05,NNE,12,1.0,2.0,87,0.00,,,-99.99,Weather View 32 v60,2013-02-10 14:28:00,
2013-02-10 06:40:00,32.8,29.9,30.07,WSW,256,0.0,3.0,89,0.00,,,-99.99,Weather View 32 v60,2013-02-10 14:40:00,
2013-02-10 06:45:00,33.7,30.8,30.07,WSW,256,1.0,3.0,89,0.00,,,-99.99,Weather View 32 v60,2013-02-10 14:45:00,
2013-02-10 06:48:00,30.9,27.8,30.06,NNW,348,1.0,2.0,88,0.00,,,-99.99,Weather View 32 v60,2013-02-10 14:48:00,
2013-02-10 06:50:00,34.5,31.6,30.07,WSW,252,0.0,3.0,89,0.00,,,-99.99,Weather View 32 v60,2013-02-10 14:50:00,
2013-02-10 06:53:00,30.8,27.7,30.06,SE,125,2.0,2.0,88,0.00,,,-99.99,Weather View 32 v60,2013-02-10 14:53:00,
2013-02-10 06:55:00,35.2,31.7,30.07,SSW,210,1.0,3.0,87,0.00,,,-99.99,Weather View 32 v60,2013-02-10 14:55:00,
2013-02-10 06:58:00,30.8,27.7,30.06,SE,125,1.0,2.0,88,0.00,,,-99.99,Weather View 32 v60,2013-02-10 14:58:00,
2013-02-10 07:00:00,35.3,31.2,30.07,ESE,112,1.0,3.0,85,0.00,,,-99.99,Weather View 32 v60,2013-02-10 15:00:00,
2013-02-10 07:03:00,30.7,27.6,30.06,SE,125,0.0,2.0,88,0.00,,,-99.99,Weather View 32 v60,2013-02-10 15:03:00,
2013-02-10 07:05:00,35.9,31.8,30.07,ENE,76,1.0,3.0,85,0.00,,,-99.99,Weather View 32 v60,2013-02-10 15:05:00,
2013-02-10 07:08:00,30.6,27.5,30.06,SE,125,0.0,2.0,88,0.00,,,-99.99,Weather View 32 v60,2013-02-10 15:08:00,
2013-02-10 07:10:00,36.7,32.0,30.07,East,100,0.0,3.0,83,0.00,,,-99.99,Weather View 32 v60,2013-02-10 15:10:00,
2013-02-10 07:13:00,30.5,27.4,30.06,ESE,123,0.0,2.0,88,0.00,,,-99.99,Weather View 32 v60,2013-02-10 15:13:00,
2013-02-10 07:20:00,38.7,33.1,30.08,NE,56,2.0,3.0,80,0.00,,,-99.99,Weather View 32 v60,2013-02-10 15:20:00,
2013-02-10 07:23:00,30.7,27.6,30.07,ENE,61,0.0,2.0,88,0.00,,,-99.99,Weather View 32 v60,2013-02-10 15:23:00,
2013-02-10 07:30:00,40.0,33.0,30.08,NNE,12,0.0,2.0,76,0.00,,,-99.99,Weather View 32 v60,2013-02-10 15:30:00,
2013-02-10 07:33:00,31.5,28.6,30.07,WNW,291,1.0,3.0,89,0.00,,,-99.99,Weather View 32 v60,2013-02-10 15:33:00,
2013-02-10 07:35:00,41.0,33.7,30.07,North,10,0.0,2.0,75,0.00,,,-99.99,Weather View 32 v60,2013-02-10 15:35:00,
2013-02-10 07:40:00,41.8,33.8,30.07,NE,53,0.0,2.0,73,0.00,,,-99.99,Weather View 32 v60,2013-02-10 15:40:00,
2013-02-10 07:50:00,42.2,33.5,30.08,NNW,342,3.0,3.0,71,0.00,,,-99.99,Weather View 32 v60,2013-02-10 15:50:00,
2013-02-10 07:53:00,34.5,31.6,30.07,WSW,252,0.0,3.0,89,0.00,,,-99.99,Weather View 32 v60,2013-02-10 15:53:00,
2013-02-10 08:00:00,42.5,34.1,30.07,NW,315,1.0,3.0,72,0.00,,,-99.99,Weather View 32 v60,2013-02-10 16:00:00,
2013-02-10 08:10:00,44.0,34.5,30.07,West,266,0.0,3.0,69,0.00,,,-99.99,Weather View 32 v60,2013-02-10 16:10:00,
2013-02-10 08:15:00,45.2,34.9,30.07,West,266,1.0,3.0,67,0.00,,,-99.99,Weather View 32 v60,2013-02-10 16:15:00,
2013-02-10 08:18:00,37.9,32.9,30.08,ENE,61,1.0,3.0,82,0.00,,,-99.99,Weather View 32 v60,2013-02-10 16:18:00,
2013-02-10 08:28:00,39.3,32.7,30.07,NNE,12,1.0,3.0,77,0.00,,,-99.99,Weather View 32 v60,2013-02-10 16:28:00,
2013-02-10 08:48:00,42.6,33.8,30.07,NW,326,1.0,2.0,71,0.00,,,-99.99,Weather View 32 v60,2013-02-10 16:48:00,
2013-02-10 08:55:00,42.2,33.5,30.08,NNW,342,3.0,3.0,71,0.00,,,-99.99,Weather View 32 v60,2013-02-10 16:55:00,
2013-02-10 09:08:00,43.3,34.5,30.07,NW,313,1.0,3.0,71,0.00,,,-99.99,Weather View 32 v60,2013-02-10 17:08:00,
2013-02-10 09:23:00,46.6,35.4,30.07,WNW,287,2.0,3.0,65,0.00,,,-99.99,Weather View 32 v60,2013-02-10 17:23:00,
2013-02-10 09:33:00,47.5,35.5,30.06,ESE,120,1.0,3.0,63,0.00,,,-99.99,Weather View 32 v60,2013-02-10 17:33:00,
2013-02-10 09:38:00,47.2,34.4,30.06,SE,128,2.0,3.0,61,0.00,,,-99.99,Weather View 32 v60,2013-02-10 17:38:00,
2013-02-10 09:43:00,47.9,35.1,30.07,NNE,25,1.0,3.0,61,0.00,,,-99.99,Weather View 32 v60,2013-02-10 17:43:00,
2013-02-10 09:48:00,49.5,36.2,30.07,SSE,157,0.0,3.0,60,0.00,,,-99.99,Weather View 32 v60,2013-02-10 17:48:00,
2013-02-10 09:56:00,49.7,34.6,30.07,East,98,3.0,4.0,56,0.00,,,-99.99,Weather View 32 v60,2013-02-10 17:56:00,
2013-02-10 10:03:00,48.8,34.7,30.07,East,96,2.0,4.0,58,0.00,,,-99.99,Weather View 32 v60,2013-02-10 18:03:00,
2013-02-10 10:08:00,49.0,34.8,30.07,SE,142,1.0,4.0,58,0.00,,,-99.99,Weather View 32 v60,2013-02-10 18:08:00,
2013-02-10 10:13:00,49.3,34.7,30.06,SSW,210,2.0,4.0,57,0.00,,,-99.99,Weather View 32 v60,2013-02-10 18:13:00,
2013-02-10 10:18:00,51.1,35.5,30.07,SSW,205,1.0,4.0,55,0.00,,,-99.99,Weather View 32 v60,2013-02-10 18:18:00,
2013-02-10 10:23:00,50.8,35.2,30.06,SSW,210,2.0,4.0,55,0.00,,,-99.99,Weather View 32 v60,2013-02-10 18:23:00,
2013-02-10 10:33:00,50.9,35.3,30.06,NE,48,1.0,5.0,55,0.00,,,-99.99,Weather View 32 v60,2013-02-10 18:33:00,
2013-02-10 10:38:00,52.2,35.6,30.06,SSE,153,2.0,5.0,53,0.00,,,-99.99,Weather View 32 v60,2013-02-10 18:38:00,
2013-02-10 10:43:00,52.1,35.5,30.06,SSE,155,2.0,5.0,53,0.00,,,-99.99,Weather View 32 v60,2013-02-10 18:43:00,
2013-02-10 10:48:00,51.6,35.0,30.06,SW,215,3.0,5.0,53,0.00,,,-99.99,Weather View 32 v60,2013-02-10 18:48:00,
2013-02-10 10:50:00,58.8,35.1,30.04,WNW,296,2.0,8.0,41,0.00,,,-99.99,Weather View 32 v60,2013-02-10 18:50:00,
2013-02-10 10:53:00,51.5,34.4,30.05,SE,145,4.0,5.0,52,0.00,,,-99.99,Weather View 32 v60,2013-02-10 18:53:00,
2013-02-10 10:58:00,52.1,34.5,30.06,SSE,165,4.0,5.0,51,0.00,,,-99.99,Weather View 32 v60,2013-02-10 18:58:00,
2013-02-10 11:03:00,52.9,34.7,30.05,WSW,241,2.0,5.0,50,0.00,,,-99.99,Weather View 32 v60,2013-02-10 19:03:00,
2013-02-10 11:05:00,61.2,35.3,30.03,West,266,2.0,8.0,38,0.00,,,-99.99,Weather View 32 v60,2013-02-10 19:05:00,
2013-02-10 11:08:00,53.3,34.1,30.05,WSW,257,2.0,5.0,48,0.00,,,-99.99,Weather View 32 v60,2013-02-10 19:08:00,
2013-02-10 11:13:00,54.5,35.2,30.05,SSW,212,2.0,5.0,48,0.00,,,-99.99,Weather View 32 v60,2013-02-10 19:13:00,
2013-02-10 11:18:00,55.4,34.4,30.05,WSW,242,1.0,5.0,45,0.00,,,-99.99,Weather View 32 v60,2013-02-10 19:18:00,
2013-02-10 11:28:00,58.0,36.2,30.05,WNW,293,1.0,5.0,44,0.00,,,-99.99,Weather View 32 v60,2013-02-10 19:28:00,
2013-02-10 11:33:00,58.6,34.9,30.04,South,170,2.0,5.0,41,0.00,,,-99.99,Weather View 32 v60,2013-02-10 19:33:00,
2013-02-10 11:35:00,59.9,36.7,30.00,SSW,208,4.0,7.0,42,0.00,,,-99.99,Weather View 32 v60,2013-02-10 19:35:00,
2013-02-10 11:38:00,58.3,34.7,30.04,ESE,119,2.0,8.0,41,0.00,,,-99.99,Weather View 32 v60,2013-02-10 19:38:00,
2013-02-10 11:43:00,58.7,35.0,30.04,WNW,295,3.0,8.0,41,0.00,,,-99.99,Weather View 32 v60,2013-02-10 19:43:00,
2013-02-10 11:50:00,62.5,37.8,30.00,SSE,152,3.0,7.0,40,0.00,,,-99.99,Weather View 32 v60,2013-02-10 19:50:00,
2013-02-10 11:53:00,58.8,35.1,30.04,WNW,296,2.0,8.0,41,0.00,,,-99.99,Weather View 32 v60,2013-02-10 19:53:00,
2013-02-10 11:55:00,62.9,37.5,30.00,South,175,2.0,7.0,39,0.00,,,-99.99,Weather View 32 v60,2013-02-10 19:55:00,
2013-02-10 12:03:00,60.0,35.6,30.03,NNW,348,1.0,8.0,40,0.00,,,-99.99,Weather View 32 v60,2013-02-10 20:03:00,
2013-02-10 12:13:00,61.3,35.4,30.02,South,169,2.0,8.0,38,0.00,,,-99.99,Weather View 32 v60,2013-02-10 20:13:00,
2013-02-10 12:15:00,64.1,36.5,29.99,NE,41,5.0,7.0,36,0.00,,,-99.99,Weather View 32 v60,2013-02-10 20:15:00,
2013-02-10 12:18:00,60.5,34.7,30.02,South,176,2.0,8.0,38,0.00,,,-99.99,Weather View 32 v60,2013-02-10 20:18:00,
2013-02-10 12:28:00,60.7,35.5,30.01,South,174,6.0,8.0,39,0.00,,,-99.99,Weather View 32 v60,2013-02-10 20:28:00,
2013-02-10 12:33:00,60.1,36.3,30.01,South,169,2.0,8.0,41,0.00,,,-99.99,Weather View 32 v60,2013-02-10 20:33:00,
2013-02-10 12:35:00,65.6,34.9,29.98,SSE,161,4.0,7.0,32,0.00,,,-99.99,Weather View 32 v60,2013-02-10 20:35:00,
2013-02-10 12:40:00,64.8,35.0,29.98,SE,141,4.0,7.0,33,0.00,,,-99.99,Weather View 32 v60,2013-02-10 20:40:00,
2013-02-10 12:43:00,60.3,36.4,30.00,SSW,203,5.0,7.0,41,0.00,,,-99.99,Weather View 32 v60,2013-02-10 20:43:00,
2013-02-10 12:45:00,64.8,34.2,29.98,ESE,119,4.0,7.0,32,0.00,,,-99.99,Weather View 32 v60,2013-02-10 20:45:00,
2013-02-10 12:48:00,61.1,37.2,30.00,SW,229,5.0,7.0,41,0.00,,,-99.99,Weather View 32 v60,2013-02-10 20:48:00,
2013-02-10 12:55:00,66.1,32.8,29.98,WSW,237,2.0,7.0,29,0.00,,,-99.99,Weather View 32 v60,2013-02-10 20:55:00,
2013-02-10 13:00:00,65.9,32.7,29.97,South,179,5.0,7.0,29,0.00,,,-99.99,Weather View 32 v60,2013-02-10 21:00:00,
2013-02-10 13:03:00,63.2,37.1,30.00,SW,222,2.0,7.0,38,0.00,,,-99.99,Weather View 32 v60,2013-02-10 21:03:00,
2013-02-10 13:05:00,65.7,32.5,29.97,SSE,167,2.0,7.0,29,0.00,,,-99.99,Weather View 32 v60,2013-02-10 21:05:00,
2013-02-10 13:13:00,64.7,37.8,29.99,SSE,161,2.0,7.0,37,0.00,,,-99.99,Weather View 32 v60,2013-02-10 21:13:00,
2013-02-10 13:23:00,63.6,36.1,29.99,SSE,166,4.0,7.0,36,0.00,,,-99.99,Weather View 32 v60,2013-02-10 21:23:00,
2013-02-10 13:30:00,66.7,32.5,29.96,South,170,5.0,7.0,28,0.00,,,-99.99,Weather View 32 v60,2013-02-10 21:30:00,
2013-02-10 13:33:00,64.2,35.9,29.98,West,271,3.0,7.0,35,0.00,,,-99.99,Weather View 32 v60,2013-02-10 21:33:00,
2013-02-10 13:35:00,65.8,31.7,29.96,SSW,205,4.0,7.0,28,0.00,,,-99.99,Weather View 32 v60,2013-02-10 21:35:00,
2013-02-10 13:40:00,66.4,33.1,29.96,SW,218,2.0,7.0,29,0.00,,,-99.99,Weather View 32 v60,2013-02-10 21:40:00,
2013-02-10 13:53:00,65.4,33.9,29.98,ENE,75,4.0,7.0,31,0.00,,,-99.99,Weather View 32 v60,2013-02-10 21:53:00,
2013-02-10 13:55:00,66.3,33.0,29.96,SSW,205,7.0,7.0,29,0.00,,,-99.99,Weather View 32 v60,2013-02-10 21:55:00,
2013-02-10 14:00:00,66.2,33.8,29.96,SSE,155,4.0,7.0,30,0.00,,,-99.99,Weather View 32 v60,2013-02-10 22:00:00,
2013-02-10 14:13:00,67.0,32.7,29.97,SW,222,1.0,7.0,28,0.00,,,-99.99,Weather View 32 v60,2013-02-10 22:13:00,
2013-02-10 14:18:00,67.5,32.3,29.97,SE,129,3.0,7.0,27,0.00,,,-99.99,Weather View 32 v60,2013-02-10 22:18:00,
2013-02-10 14:20:00,66.3,35.5,29.96,NW,322,3.0,11.0,32,0.00,,,-99.99,Weather View 32 v60,2013-02-10 22:20:00,
2013-02-10 14:28:00,67.5,32.3,29.96,NE,51,1.0,7.0,27,0.00,,,-99.99,Weather View 32 v60,2013-02-10 22:28:00,
2013-02-10 14:48:00,66.5,33.2,29.96,SE,140,3.0,7.0,29,0.00,,,-99.99,Weather View 32 v60,2013-02-10 22:48:00,
2013-02-10 14:50:00,65.7,38.0,29.96,SSE,160,3.0,11.0,36,0.00,,,-99.99,Weather View 32 v60,2013-02-10 22:50:00,
2013-02-10 14:53:00,66.3,33.0,29.96,SW,223,6.0,7.0,29,0.00,,,-99.99,Weather View 32 v60,2013-02-10 22:53:00,
2013-02-10 14:55:00,65.8,35.8,29.96,SW,235,5.0,11.0,33,0.00,,,-99.99,Weather View 32 v60,2013-02-10 22:55:00,
2013-02-10 14:59:00,66.3,33.0,29.96,SSW,205,7.0,7.0,29,0.00,,,-99.99,Weather View 32 v60,2013-02-10 22:59:00,
2013-02-10 15:00:00,65.1,32.0,29.96,West,269,6.0,12.0,29,0.00,,,-99.99,Weather View 32 v60,2013-02-10 23:00:00,
2013-02-10 15:05:00,64.8,31.7,29.96,WSW,253,7.0,15.0,29,0.00,,,-99.99,Weather View 32 v60,2013-02-10 23:05:00,
2013-02-10 15:08:00,66.2,33.8,29.96,WSW,237,4.0,11.0,30,0.00,,,-99.99,Weather View 32 v60,2013-02-10 23:08:00,
2013-02-10 15:18:00,65.9,34.3,29.96,WSW,243,4.0,11.0,31,0.00,,,-99.99,Weather View 32 v60,2013-02-10 23:18:00,
2013-02-10 15:25:00,63.6,32.3,29.96,SSW,211,5.0,15.0,31,0.00,,,-99.99,Weather View 32 v60,2013-02-10 23:25:00,
2013-02-10 15:28:00,66.1,36.8,29.96,ESE,117,3.0,11.0,34,0.00,,,-99.99,Weather View 32 v60,2013-02-10 23:28:00,
2013-02-10 15:38:00,65.5,37.1,29.97,SSE,162,3.0,11.0,35,0.00,,,-99.99,Weather View 32 v60,2013-02-10 23:38:00,
2013-02-10 15:40:00,62.0,33.2,29.96,South,175,6.0,15.0,34,0.00,,,-99.99,Weather View 32 v60,2013-02-10 23:40:00,
2013-02-10 15:48:00,65.1,38.8,29.96,SSW,206,2.0,11.0,38,0.00,,,-99.99,Weather View 32 v60,2013-02-10 23:48:00,
2013-02-10 16:00:00,60.8,34.3,29.97,SSW,208,6.0,15.0,37,0.00,,,-99.99,Weather View 32 v60,2013-02-11 00:00:00,
2013-02-10 16:05:00,60.6,34.1,29.97,South,173,7.0,12.0,37,0.00,,,-99.99,Weather View 32 v60,2013-02-11 00:05:00,
2013-02-10 16:13:00,64.3,32.1,29.96,SSE,164,4.0,15.0,30,0.00,,,-99.99,Weather View 32 v60,2013-02-11 00:13:00,
2013-02-10 16:18:00,64.0,31.9,29.96,SW,222,7.0,15.0,30,0.00,,,-99.99,Weather View 32 v60,2013-02-11 00:18:00,
2013-02-10 16:20:00,59.5,36.9,29.98,SE,133,13.0,13.0,43,0.00,,,-99.99,Weather View 32 v60,2013-02-11 00:20:00,
2013-02-10 16:23:00,63.7,32.4,29.96,SSE,167,7.0,15.0,31,0.00,,,-99.99,Weather View 32 v60,2013-02-11 00:23:00,
2013-02-10 16:25:00,58.5,37.2,29.98,SE,124,5.0,13.0,45,0.00,,,-99.99,Weather View 32 v60,2013-02-11 00:25:00,
2013-02-10 16:33:00,62.8,32.4,29.96,SSE,164,7.0,15.0,32,0.00,,,-99.99,Weather View 32 v60,2013-02-11 00:33:00,
2013-02-10 16:38:00,62.7,33.1,29.96,South,173,6.0,15.0,33,0.00,,,-99.99,Weather View 32 v60,2013-02-11 00:38:00,
2013-02-10 16:40:00,56.4,38.0,29.98,SE,145,5.0,13.0,50,0.00,,,-99.99,Weather View 32 v60,2013-02-11 00:40:00,
2013-02-10 16:45:00,55.9,38.0,29.98,ESE,123,8.0,13.0,51,0.00,,,-99.99,Weather View 32 v60,2013-02-11 00:45:00,
2013-02-10 16:48:00,61.5,33.5,29.96,SSW,205,7.0,15.0,35,0.00,,,-99.99,Weather View 32 v60,2013-02-11 00:48:00,
2013-02-10 16:53:00,61.5,33.5,29.97,SW,235,7.0,15.0,35,0.00,,,-99.99,Weather View 32 v60,2013-02-11 00:53:00,
2013-02-10 16:55:00,55.2,37.4,29.99,SSE,161,3.0,13.0,51,0.00,,,-99.99,Weather View 32 v60,2013-02-11 00:55:00,
2013-02-10 16:58:00,61.1,33.9,29.97,South,176,6.0,15.0,36,0.00,,,-99.99,Weather View 32 v60,2013-02-11 00:58:00,
2013-02-10 17:05:00,54.5,36.2,29.99,ESE,118,4.0,13.0,50,0.00,,,-99.99,Weather View 32 v60,2013-02-11 01:05:00,
2013-02-10 17:13:00,60.3,33.9,29.97,SSE,167,4.0,11.0,37,0.00,,,-99.99,Weather View 32 v60,2013-02-11 01:13:00,
2013-02-10 17:18:00,60.4,34.0,29.97,SSE,152,5.0,11.0,37,0.00,,,-99.99,Weather View 32 v60,2013-02-11 01:18:00,
2013-02-10 17:33:00,57.8,38.2,29.98,SSE,155,5.0,13.0,48,0.00,,,-99.99,Weather View 32 v60,2013-02-11 01:33:00,
2013-02-10 17:38:00,57.0,38.5,29.98,SE,127,7.0,13.0,50,0.00,,,-99.99,Weather View 32 v60,2013-02-11 01:38:00,
2013-02-10 17:53:00,55.5,37.6,29.98,SSE,157,6.0,13.0,51,0.00,,,-99.99,Weather View 32 v60,2013-02-11 01:53:00,
2013-02-10 18:03:00,54.8,36.5,29.99,South,171,5.0,13.0,50,0.00,,,-99.99,Weather View 32 v60,2013-02-11 02:03:00,
2013-02-10 18:13:00,54.2,35.9,29.99,SE,137,5.0,13.0,50,0.00,,,-99.99,Weather View 32 v60,2013-02-11 02:13:00,
2013-02-10 18:23:00,53.6,35.4,29.99,SSE,154,4.0,13.0,50,0.00,,,-99.99,Weather View 32 v60,2013-02-11 02:23:00,
2013-02-10 18:28:00,53.4,35.2,29.99,SE,135,4.0,11.0,50,0.00,,,-99.99,Weather View 32 v60,2013-02-11 02:28:00,
2013-02-10 18:30:00,48.2,35.4,30.00,ENE,64,0.0,5.0,61,0.00,,,-99.99,Weather View 32 v60,2013-02-11 02:30:00,
2013-02-10 18:33:00,53.1,34.9,29.99,SE,133,4.0,11.0,50,0.00,,,-99.99,Weather View 32 v60,2013-02-11 02:33:00,
2013-02-10 18:35:00,47.8,35.4,30.00,NW,306,1.0,4.0,62,0.00,,,-99.99,Weather View 32 v60,2013-02-11 02:35:00,
2013-02-10 18:40:00,47.7,35.7,30.01,NNE,16,1.0,4.0,63,0.00,,,-99.99,Weather View 32 v60,2013-02-11 02:40:00,
2013-02-10 18:43:00,52.7,35.0,30.00,SSE,165,2.0,9.0,51,0.00,,,-99.99,Weather View 32 v60,2013-02-11 02:43:00,
2013-02-10 18:48:00,52.5,34.9,30.00,South,171,2.0,9.0,51,0.00,,,-99.99,Weather View 32 v60,2013-02-11 02:48:00,
2013-02-10 18:53:00,52.1,35.0,30.00,SE,127,1.0,9.0,52,0.00,,,-99.99,Weather View 32 v60,2013-02-11 02:53:00,
2013-02-10 18:55:00,46.9,35.7,30.00,NE,41,1.0,5.0,65,0.00,,,-99.99,Weather View 32 v60,2013-02-11 02:55:00,
2013-02-10 18:58:00,51.8,35.2,30.01,South,179,3.0,8.0,53,0.00,,,-99.99,Weather View 32 v60,2013-02-11 02:58:00,
2013-02-10 19:03:00,51.6,35.0,30.01,SE,144,3.0,8.0,53,0.00,,,-99.99,Weather View 32 v60,2013-02-11 03:03:00,
2013-02-10 19:13:00,50.8,35.2,30.01,East,101,1.0,8.0,55,0.00,,,-99.99,Weather View 32 v60,2013-02-11 03:13:00,
2013-02-10 19:18:00,50.2,35.1,30.00,East,86,1.0,7.0,56,0.00,,,-99.99,Weather View 32 v60,2013-02-11 03:18:00,
2013-02-10 19:28:00,48.9,35.2,30.00,ENE,70,2.0,7.0,59,0.00,,,-99.99,Weather View 32 v60,2013-02-11 03:28:00,
2013-02-10 19:30:00,45.0,35.8,30.02,NNE,29,1.0,5.0,70,0.00,,,-99.99,Weather View 32 v60,2013-02-11 03:30:00,
2013-02-10 19:48:00,47.4,35.4,30.01,NNE,23,2.0,4.0,63,0.00,,,-99.99,Weather View 32 v60,2013-02-11 03:48:00,
2013-02-10 19:53:00,47.3,35.7,30.01,NE,56,3.0,5.0,64,0.00,,,-99.99,Weather View 32 v60,2013-02-11 03:53:00,
2013-02-10 19:55:00,44.5,36.0,30.02,SW,236,1.0,7.0,72,0.00,,,-99.99,Weather View 32 v60,2013-02-11 03:55:00,
2013-02-10 19:58:00,46.9,35.7,30.00,NE,41,1.0,5.0,65,0.00,,,-99.99,Weather View 32 v60,2013-02-11 03:58:00,
2013-02-10 20:00:00,44.4,35.6,30.02,NNW,342,1.0,7.0,71,0.00,,,-99.99,Weather View 32 v60,2013-02-11 04:00:00,
2013-02-10 20:03:00,46.5,35.7,30.01,NE,35,1.0,5.0,66,0.00,,,-99.99,Weather View 32 v60,2013-02-11 04:03:00,
2013-02-10 20:05:00,44.3,35.8,30.02,ENE,63,1.0,7.0,72,0.00,,,-99.99,Weather View 32 v60,2013-02-11 04:05:00,
2013-02-10 20:08:00,46.1,35.7,30.01,NE,39,1.0,5.0,67,0.00,,,-99.99,Weather View 32 v60,2013-02-11 04:08:00,
2013-02-10 20:10:00,44.3,35.8,30.02,East,93,3.0,7.0,72,0.00,,,-99.99,Weather View 32 v60,2013-02-11 04:10:00,
2013-02-10 20:13:00,45.8,35.8,30.01,NNE,31,1.0,5.0,68,0.00,,,-99.99,Weather View 32 v60,2013-02-11 04:13:00,
2013-02-10 20:15:00,44.3,35.8,30.03,NW,307,1.0,7.0,72,0.00,,,-99.99,Weather View 32 v60,2013-02-11 04:15:00,
2013-02-10 20:18:00,45.5,35.9,30.01,NNE,33,1.0,5.0,69,0.00,,,-99.99,Weather View 32 v60,2013-02-11 04:18:00,
2013-02-10 20:20:00,44.0,35.5,30.03,WNW,302,2.0,7.0,72,0.00,,,-99.99,Weather View 32 v60,2013-02-11 04:20:00,
2013-02-10 20:23:00,45.3,36.1,30.02,NNW,330,1.0,5.0,70,0.00,,,-99.99,Weather View 32 v60,2013-02-11 04:23:00,
2013-02-10 20:25:00,43.7,35.6,30.03,NNW,344,2.0,7.0,73,0.00,,,-99.99,Weather View 32 v60,2013-02-11 04:25:00,
2013-02-10 20:30:00,43.5,35.4,30.03,North,349,3.0,7.0,73,0.00,,,-99.99,Weather View 32 v60,2013-02-11 04:30:00,
2013-02-10 20:35:00,43.3,35.6,30.03,NNW,328,4.0,7.0,74,0.00,,,-99.99,Weather View 32 v60,2013-02-11 04:35:00,
2013-02-10 20:38:00,44.7,35.9,30.02,North,11,1.0,5.0,71,0.00,,,-99.99,Weather View 32 v60,2013-02-11 04:38:00,
2013-02-10 20:40:00,43.2,35.5,30.03,NNW,346,3.0,7.0,74,0.00,,,-99.99,Weather View 32 v60,2013-02-11 04:40:00,
2013-02-10 20:43:00,44.7,35.9,30.02,NNE,28,1.0,5.0,71,0.00,,,-99.99,Weather View 32 v60,2013-02-11 04:43:00,
2013-02-10 20:45:00,43.1,35.7,30.03,North,11,1.0,7.0,75,0.00,,,-99.99,Weather View 32 v60,2013-02-11 04:45:00,
2013-02-10 20:48:00,44.8,36.3,30.02,ESE,107,2.0,5.0,72,0.00,,,-99.99,Weather View 32 v60,2013-02-11 04:48:00,
2013-02-10 20:50:00,42.9,35.5,30.03,NE,51,0.0,6.0,75,0.00,,,-99.99,Weather View 32 v60,2013-02-11 04:50:00,
2013-02-10 20:53:00,44.7,35.9,30.02,NNE,16,0.0,7.0,71,0.00,,,-99.99,Weather View 32 v60,2013-02-11 04:53:00,
2013-02-10 20:55:00,42.9,35.8,30.03,SSE,151,1.0,6.0,76,0.00,,,-99.99,Weather View 32 v60,2013-02-11 04:55:00,
2013-02-10 21:00:00,42.9,35.8,30.03,WSW,239,1.0,6.0,76,0.00,,,-99.99,Weather View 32 v60,2013-02-11 05:00:00,
2013-02-10 21:05:00,42.9,35.8,30.03,SW,236,1.0,6.0,76,0.00,,,-99.99,Weather View 32 v60,2013-02-11 05:05:00,
2013-02-10 21:10:00,42.8,35.8,30.03,South,173,1.0,6.0,76,0.00,,,-99.99,Weather View 32 v60,2013-02-11 05:10:00,
2013-02-10 21:15:00,42.6,35.6,30.04,SE,132,2.0,6.0,76,0.00,,,-99.99,Weather View 32 v60,2013-02-11 05:15:00,
2013-02-10 21:20:00,42.6,35.6,30.04,East,95,1.0,6.0,76,0.00,,,-99.99,Weather View 32 v60,2013-02-11 05:20:00,
2013-02-10 21:25:00,42.3,35.6,30.04,SSW,208,2.0,6.0,77,0.00,,,-99.99,Weather View 32 v60,2013-02-11 05:25:00,
2013-02-10 21:30:00,42.2,35.5,30.04,WSW,238,1.0,6.0,77,0.00,,,-99.99,Weather View 32 v60,2013-02-11 05:30:00,
2013-02-10 21:35:00,41.9,35.2,30.04,SSW,203,0.0,6.0,77,0.00,,,-99.99,Weather View 32 v60,2013-02-11 05:35:00,
2013-02-10 21:40:00,41.8,35.4,30.04,SSW,209,0.0,5.0,78,0.00,,,-99.99,Weather View 32 v60,2013-02-11 05:40:00,
2013-02-10 21:45:00,41.5,35.1,30.04,East,95,0.0,4.0,78,0.00,,,-99.99,Weather View 32 v60,2013-02-11 05:45:00,
2013-02-10 21:50:00,41.1,34.8,30.04,NE,36,1.0,6.0,78,0.00,,,-99.99,Weather View 32 v60,2013-02-11 05:50:00,
2013-02-10 21:55:00,40.9,34.9,30.04,North,359,2.0,6.0,79,0.00,,,-99.99,Weather View 32 v60,2013-02-11 05:55:00,
2013-02-10 22:00:00,40.7,34.7,30.04,NNE,25,3.0,6.0,79,0.00,,,-99.99,Weather View 32 v60,2013-02-11 06:00:00,
2013-02-10 22:05:00,40.7,35.0,30.04,SSE,155,2.0,6.0,80,0.00,,,-99.99,Weather View 32 v60,2013-02-11 06:05:00,
2013-02-10 22:10:00,40.8,35.1,30.04,SE,146,7.0,8.0,80,0.00,,,-99.99,Weather View 32 v60,2013-02-11 06:10:00,
2013-02-10 22:15:00,40.9,35.2,30.05,East,93,0.0,9.0,80,0.00,,,-99.99,Weather View 32 v60,2013-02-11 06:15:00,
2013-02-10 22:20:00,41.0,35.3,30.04,SW,215,2.0,9.0,80,0.00,,,-99.99,Weather View 32 v60,2013-02-11 06:20:00,
2013-02-10 22:25:00,40.8,35.1,30.04,West,275,2.0,9.0,80,0.00,,,-99.99,Weather View 32 v60,2013-02-11 06:25:00,
2013-02-10 22:30:00,40.8,35.1,30.05,NNE,23,4.0,9.0,80,0.00,,,-99.99,Weather View 32 v60,2013-02-11 06:30:00,
2013-02-10 22:35:00,40.8,35.4,30.05,NNE,27,4.0,9.0,81,0.00,,,-99.99,Weather View 32 v60,2013-02-11 06:35:00,
2013-02-10 22:40:00,40.6,34.9,30.05,NNE,24,2.0,9.0,80,0.00,,,-99.99,Weather View 32 v60,2013-02-11 06:40:00,
2013-02-10 22:45:00,40.4,35.0,30.05,North,5,3.0,9.0,81,0.00,,,-99.99,Weather View 32 v60,2013-02-11 06:45:00,
2013-02-10 22:50:00,40.6,35.2,30.05,NNE,32,3.0,9.0,81,0.00,,,-99.99,Weather View 32 v60,2013-02-11 06:50:00,
2013-02-10 22:55:00,41.1,36.0,30.05,SE,146,4.0,9.0,82,0.00,,,-99.99,Weather View 32 v60,2013-02-11 06:55:00,
2013-02-10 23:00:00,41.2,35.8,30.05,NW,306,3.0,9.0,81,0.00,,,-99.99,Weather View 32 v60,2013-02-11 07:00:00,
2013-02-10 23:05:00,41.1,35.4,30.06,SW,232,2.0,9.0,80,0.00,,,-99.99,Weather View 32 v60,2013-02-11 07:05:00,
2013-02-10 23:10:00,41.1,35.7,30.05,NW,305,2.0,9.0,81,0.00,,,-99.99,Weather View 32 v60,2013-02-11 07:10:00,
2013-02-10 23:15:00,40.8,35.1,30.06,NNW,344,1.0,6.0,80,0.00,,,-99.99,Weather View 32 v60,2013-02-11 07:15:00,
2013-02-10 23:20:00,40.5,35.1,30.06,ENE,72,3.0,6.0,81,0.00,,,-99.99,Weather View 32 v60,2013-02-11 07:20:00,
2013-02-10 23:25:00,40.3,34.9,30.06,North,1,1.0,6.0,81,0.00,,,-99.99,Weather View 32 v60,2013-02-11 07:25:00,
2013-02-10 23:30:00,40.0,34.6,30.06,ENE,69,3.0,6.0,81,0.00,,,-99.99,Weather View 32 v60,2013-02-11 07:30:00,
2013-02-10 23:35:00,39.5,34.1,30.05,ENE,64,1.0,6.0,81,0.00,,,-99.99,Weather View 32 v60,2013-02-11 07:35:00,
2013-02-10 23:40:00,39.2,34.2,30.05,North,353,1.0,6.0,82,0.00,,,-99.99,Weather View 32 v60,2013-02-11 07:40:00,
2013-02-10 23:45:00,39.0,34.0,30.06,NW,322,2.0,6.0,82,0.00,,,-99.99,Weather View 32 v60,2013-02-11 07:45:00,
2013-02-10 23:50:00,38.8,34.1,30.06,WNW,295,2.0,6.0,83,0.00,,,-99.99,Weather View 32 v60,2013-02-11 07:50:00,
2013-02-10 23:55:00,38.7,34.0,30.06,NW,306,2.0,6.0,83,0.00,,,-99.99,Weather View 32 v60,2013-02-11 07:55:00,